Notices

What's New in latest Release from April 7th, 2021:

- Updated Glossary, including Speed of Maximum Gust, and Total Hourly Precipitation

- Updated national and regional climate services offices contacts and prices information

- Addition of station inventory lists for 1981-2010, 1971-2000, and 1961-1990 Normals.

If you haven't already, please take our survey and provide feedback about our website: https://eccc.sondage-survey.ca/f/LanguageSelection.aspx?s=442ca660-fcf1-47c0-95a9-59707d6fd709

Hourly Data Report for June 27, 2004

SHERBROOKE A
QUEBEC

45°26'00.000" N
71°41'00.000" W
241.40 m
7028124
71610
YSC

Download Data

Hourly Data (June 2004)
Hourly Data Report for June 27, 2004
TIME
LST
Temp Definition
°C
Dew Point Definition
°C
Rel Hum Definition
%
Precip. Amount Definition
mm

Wind Dir Definition
10's deg

Wind Spd Definition
km/h
Visibility Definition
km
Stn Press Definition
kPa
Hmdx Definition


Wind Chill Definition


Weather Definition


00:00 8.8 7.1 89   20 4 15.0 98.30      
01:00 7.2 5.8 91     0 15.0 98.28      
02:00 6.2 4.9 91   16 4 15.0 98.29      
03:00 6.5 5.4 93     0 15.0 98.29      
04:00 5.7 4.3 91     0 15.0 98.29      
05:00 8.0 7.1 94   20 4 15.0 98.30      
06:00 11.4 9.0 85   23 6 15.0 98.37      
07:00 13.0 8.4 74   25 17 24.1 98.39     Mostly Cloudy
08:00 14.2 8.0 66   25 22 24.1 98.36     Mainly Clear
09:00 16.8 8.8 59   24 20 24.1 98.32     Mainly Clear
10:00 18.3 7.5 49   25 28 24.1 98.28     Mainly Clear
11:00 17.4 6.3 48   24 19 24.1 98.27     Mostly Cloudy
12:00 19.2 6.8 44   24 32 24.1 98.20     Mainly Clear
13:00 19.0 6.9 45   25 28 24.1 98.15     Mainly Clear
14:00 19.3 5.8 41   26 26 24.1 98.14     Mostly Cloudy
15:00 19.6 6.0 41   25 26 24.1 98.14     Mainly Clear
16:00 19.1 6.4 43   26 32 24.1 98.16     Mostly Cloudy
17:00 13.6 11.3 86   28 13 15.0 98.30     Rain
18:00 14.9 10.0 72   26 19 15.0 98.32      
19:00 14.4 9.1 70   23 9 15.0 98.35      
20:00 13.1 9.1 77   22 9 15.0 98.38      
21:00 12.9 8.1 73   30 9 15.0 98.47      
22:00 12.0 8.6 80   29 11 9.7 98.52     Rain
23:00 11.4 9.1 86   26 6 15.0 98.51      

Notes on Data Quality.

Legend

  • E = Estimated
  • M = Missing
  • NA = Not Available*
  • [empty] = Indicates an unobserved value
Date modified: